| time (UTC) | temp F | wind direction | speed knots | gust knots | rain 1hr in | rain 24hr in | rain mn in | humidity % | barometer mb |
| 20260510053037 | 52 | 60 | 0.9 | 4.3 | 0.05 | 0.42 | 0.06 | 94 | 1019.5 |
| 20260510050311 | 54 | 328 | 0.9 | 7.0 | 0.06 | 0.42 | 0.06 | 93 | 1019.1 |
| 20260510050028 | 54 | 324 | 1.7 | 10.4 | 0.06 | 0.42 | 0.06 | 93 | 1019.1 |
| 20260510043022 | 56 | 312 | 0.9 | 4.3 | 0.01 | 0.37 | 0.01 | 91 | 1018.0 |
| 20260510040402 | 55 | 314 | 3.5 | 5.2 | 0.00 | 0.36 | 0.00 | 93 | 1017.6 |
| 20260510040028 | 55 | 314 | 3.5 | 5.2 | 0.00 | 0.36 | 0.00 | 93 | 1017.7 |
| 20260510033109 | 54 | 259 | 2.6 | 5.2 | 0.00 | 0.36 | 0.36 | 95 | 1016.9 |
| 20260510030347 | 54 | 180 | 0.9 | 1.7 | 0.00 | 0.36 | 0.36 | 92 | 1016.6 |
| 20260510030024 | 54 | 180 | 0.0 | 1.7 | 0.00 | 0.36 | 0.36 | 92 | 1016.5 |
| 20260510023110 | 55 | 212 | 1.7 | 4.3 | 0.00 | 0.36 | 0.36 | 91 | 1016.7 |
| 20260510020323 | 55 | 244 | 1.7 | 5.2 | 0.00 | 0.36 | 0.36 | 93 | 1016.7 |
| 20260510020040 | 55 | 182 | 2.6 | 5.2 | 0.00 | 0.36 | 0.36 | 93 | 1016.6 |
| 20260510013017 | 55 | 255 | 2.6 | 4.3 | 0.00 | 0.37 | 0.36 | 93 | 1016.1 |
| 20260510010354 | 55 | 273 | 2.6 | 6.1 | 0.00 | 0.37 | 0.36 | 94 | 1015.9 |
| 20260510010030 | 55 | 228 | 1.7 | 6.1 | 0.00 | 0.37 | 0.36 | 94 | 1015.9 |
| 20260510003012 | 55 | 233 | 0.9 | 3.5 | 0.00 | 0.40 | 0.36 | 95 | 1015.7 |
| 20260510000333 | 55 | 261 | 0.9 | 7.0 | 0.03 | 0.40 | 0.36 | 94 | 1015.5 |
| 20260510000023 | 55 | 275 | 0.9 | 7.0 | 0.04 | 0.40 | 0.36 | 94 | 1015.5 |
| 20260509233045 | 56 | 255 | 4.3 | 8.7 | 0.36 | 0.40 | 0.36 | 95 | 1015.2 |
| 20260509230341 | 55 | 279 | 5.2 | 20.0 | 0.33 | 0.37 | 0.33 | 93 | 1016.1 |
| 20260509230032 | 55 | 245 | 4.3 | 20.0 | 0.32 | 0.36 | 0.32 | 93 | 1016.1 |
| 20260509223038 | 68 | 309 | 6.1 | 11.3 | 0.00 | 0.04 | 0.00 | 61 | 1014.7 |
| 20260509220355 | 68 | 211 | 7.8 | 13.9 | 0.00 | 0.04 | 0.00 | 59 | 1012.7 |
| 20260509220030 | 68 | 255 | 7.0 | 12.2 | 0.00 | 0.04 | 0.00 | 59 | 1012.7 |
| 20260509213105 | 70 | 198 | 6.1 | 16.5 | 0.00 | 0.04 | 0.00 | 53 | 1012.4 |
| 20260509210402 | 70 | 265 | 6.1 | 10.4 | 0.00 | 0.04 | 0.00 | 56 | 1012.8 |
| 20260509210104 | 70 | 279 | 7.0 | 15.6 | 0.00 | 0.04 | 0.00 | 56 | 1012.9 |
| 20260509210021 | 70 | 279 | 7.0 | 15.6 | 0.00 | 0.04 | 0.00 | 56 | 1012.9 |
| 20260509203039 | 70 | 156 | 4.3 | 12.2 | 0.00 | 0.04 | 0.00 | 59 | 1013.4 |
| 20260509200313 | 70 | 254 | 7.8 | 14.8 | 0.00 | 0.04 | 0.00 | 57 | 1013.9 |
| 20260509200038 | 70 | 259 | 8.7 | 14.8 | 0.00 | 0.04 | 0.00 | 57 | 1013.9 |
| 20260509193032 | 69 | 206 | 7.0 | 14.8 | 0.00 | 0.04 | 0.00 | 57 | 1014.2 |
| 20260509190355 | 69 | 254 | 7.0 | 13.0 | 0.00 | 0.04 | 0.00 | 59 | 1014.5 |
| 20260509190047 | 69 | 219 | 7.0 | 12.2 | 0.00 | 0.04 | 0.00 | 57 | 1014.5 |
| 20260509183021 | 69 | 273 | 6.1 | 11.3 | 0.00 | 0.04 | 0.00 | 60 | 1014.7 |
| 20260509180336 | 68 | 238 | 5.2 | 9.6 | 0.00 | 0.04 | 0.00 | 61 | 1015.0 |
| 20260509180018 | 68 | 197 | 4.3 | 10.4 | 0.00 | 0.04 | 0.00 | 62 | 1015.0 |
| 20260509173012 | 67 | 243 | 6.1 | 14.8 | 0.00 | 0.04 | 0.00 | 62 | 1015.2 |
| 20260509170345 | 67 | 202 | 3.5 | 11.3 | 0.00 | 0.04 | 0.00 | 66 | 1015.4 |
| 20260509170020 | 67 | 265 | 6.1 | 11.3 | 0.00 | 0.04 | 0.00 | 65 | 1015.5 |
| 20260509163042 | 65 | 194 | 5.2 | 7.8 | 0.00 | 0.04 | 0.00 | 73 | 1015.7 |
| 20260509160317 | 62 | 339 | 2.6 | 7.0 | 0.00 | 0.04 | 0.00 | 82 | 1016.3 |
| 20260509160050 | 61 | 316 | 1.7 | 7.8 | 0.00 | 0.04 | 0.00 | 83 | 1016.3 |
| 20260509153024 | 62 | 291 | 4.3 | 8.7 | 0.00 | 0.04 | 0.00 | 78 | 1016.4 |
| 20260509150429 | 61 | 184 | 2.6 | 7.8 | 0.00 | 0.04 | 0.00 | 82 | 1016.3 |
| 20260509150044 | 61 | 232 | 4.3 | 7.8 | 0.00 | 0.04 | 0.00 | 81 | 1016.4 |
| 20260509143100 | 59 | 238 | 3.5 | 8.7 | 0.00 | 0.04 | 0.00 | 85 | 1016.6 |
| 20260509140422 | 58 | 211 | 2.6 | 6.1 | 0.00 | 0.04 | 0.00 | 88 | 1016.6 |
| 20260509140058 | 58 | 274 | 2.6 | 6.1 | 0.00 | 0.04 | 0.00 | 89 | 1016.7 |
| 20260509133014 | 56 | 192 | 3.5 | 6.1 | 0.00 | 0.04 | 0.00 | 92 | 1016.6 |
| 20260509130313 | 56 | 229 | 2.6 | 5.2 | 0.00 | 0.04 | 0.00 | 93 | 1016.7 |
| 20260509130009 | 56 | 205 | 0.9 | 5.2 | 0.00 | 0.04 | 0.00 | 93 | 1016.8 |
| 20260509123026 | 55 | 216 | 2.6 | 6.1 | 0.00 | 0.04 | 0.00 | 95 | 1017.0 |
| 20260509120404 | 54 | 155 | 1.7 | 3.5 | 0.00 | 0.04 | 0.00 | 96 | 1017.2 |
| 20260509120044 | 54 | 171 | 1.7 | 4.3 | 0.00 | 0.04 | 0.00 | 96 | 1017.2 |
| 20260509113039 | 53 | 132 | 0.9 | 2.6 | 0.00 | 0.04 | 0.00 | 96 | 1017.1 |
| 20260509110339 | 53 | 136 | 0.9 | 2.6 | 0.00 | 0.04 | 0.00 | 96 | 1017.0 |
| 20260509103015 | 53 | 181 | 1.7 | 2.6 | 0.00 | 0.04 | 0.00 | 96 | 1016.9 |
| 20260509100310 | 53 | 217 | 0.9 | 3.5 | 0.00 | 0.04 | 0.00 | 96 | 1016.9 |
| 20260509100009 | 53 | 233 | 0.9 | 3.5 | 0.00 | 0.04 | 0.00 | 96 | 1016.9 |
| 20260509093047 | 53 | 149 | 0.0 | 2.6 | 0.00 | 0.04 | 0.00 | 95 | 1017.1 |
| 20260509090349 | 53 | 185 | 1.7 | 3.5 | 0.00 | 0.04 | 0.00 | 95 | 1017.2 |
| 20260509090039 | 53 | 183 | 1.7 | 3.5 | 0.00 | 0.04 | 0.00 | 95 | 1017.3 |
| 20260509083104 | 53 | 215 | 2.6 | 5.2 | 0.00 | 0.04 | 0.00 | 95 | 1017.5 |
| 20260509080339 | 53 | 246 | 1.7 | 3.5 | 0.00 | 0.04 | 0.00 | 95 | 1017.4 |
| 20260509080038 | 53 | 209 | 0.9 | 2.6 | 0.00 | 0.04 | 0.00 | 95 | 1017.4 |
| 20260509073038 | 52 | 203 | 1.7 | 3.5 | 0.00 | 0.04 | 0.00 | 95 | 1017.6 |
| 20260509070334 | 52 | 228 | 1.7 | 7.8 | 0.00 | 0.04 | 0.00 | 94 | 1017.6 |
| 20260509070010 | 52 | 215 | 2.6 | 7.8 | 0.00 | 0.04 | 0.00 | 94 | 1017.7 |
| 20260509063048 | 52 | 183 | 1.7 | 5.2 | 0.00 | 0.04 | 0.00 | 94 | 1017.9 |
| 20260509060350 | 52 | 209 | 1.7 | 6.1 | 0.00 | 0.04 | 0.00 | 94 | 1018.1 |
| 20260509060026 | 52 | 193 | 2.6 | 6.1 | 0.00 | 0.04 | 0.00 | 94 | 1018.1 |